Overview Statistics Trail Chart Weather Telemetry Raw packets
 

This is the latest recevied weather packets stored in our database for station/object OE5RBO. If no packets are shown the sender has not sent any weather packets the latest 10 day(s).

<< 21 22 23 24 25 26 27 >>
Time Temp. Humidity Pressure Rain* Wind** Luminosity Snow
1788277399 26.67° C 49% 1020.7 hPa 0 mm - - -
1788276799 26.67° C 51% 1020.8 hPa 0 mm - - -
1788276198 26.67° C 49% 1020.7 hPa 0 mm - - -
1788275598 26.11° C 52% 1020.8 hPa 0 mm - - -
1788274998 25.56° C 52% 1020.9 hPa 0 mm - - -
1788274397 26.67° C 51% 1020.8 hPa 0 mm - - -
1788273797 26.67° C 51% 1020.8 hPa 0 mm - - -
1788273196 26.67° C 51% 1020.9 hPa 0 mm - - -
1788272596 27.22° C 48% 1020.9 hPa 0 mm - - -
1788271996 27.22° C 49% 1020.9 hPa 0 mm - - -
1788271396 26.67° C 51% 1021 hPa 0 mm - - -
1788270795 26.11° C 52% 1021.2 hPa 0 mm - - -
1788270195 25° C 57% 1021.3 hPa 0 mm - - -
1788269594 25.56° C 55% 1021.4 hPa 0 mm - - -
1788268394 26.11° C 54% 1021.6 hPa 0 mm - - -
1788267793 25° C 57% 1021.8 hPa 0 mm - - -
1788267193 25° C 57% 1021.9 hPa 0 mm - - -
1788265992 25° C 56% 1022 hPa 0 mm - - -
1788264798 25.56° C 57% 1021.9 hPa 0 mm - - -
1788264191 25.56° C 55% 1022.1 hPa 0 mm - - -
1788263591 26.67° C 54% 1022.2 hPa 0 mm - - -
1788262991 25.56° C 56% 1022.3 hPa 0 mm - - -
1788261790 25.56° C 56% 1022.4 hPa 0 mm - - -
1788261189 22.78° C 65% 1022.4 hPa 0 mm - - -
1788260589 23.33° C 63% 1022.5 hPa 0 mm - - -

* Rain since midnight (hover to see other rain measurements)
** Current wind speed in m/s (hover to see current wind gust speed)